Location: Vihti�l�
(61.3833°N, 23.0667°E)
Time: 04:45:38
(UTC+00:00)

Cosmos 2219 - Pass Details

Date: 29 November 2020
Orbit: 833 x 860 km, 71.1° (Epoch: 19 January)

Event Time Altitude Azimuth Distance (km) Brightness Sun altitude
Exits shadow 04:10:53 31° 308° (NW) 1,467 4.0 -19.4°
Maximum altitude 04:12:29 37° 341° (NNW) 1,321 4.0 -19.2°
Drops below altitude 10° 04:17:49 10° 49° (NE) 2,510 6.2 -18.6°
Sets 04:20:29 0° 58° (ENE) 3,447 7.1 -18.3°
